Weather History for KMCW - October, 2011

Change the Weather History Date:

Friday, October 21, 2011

  Actual Average Record
Temperature  
Mean Temperature 44 °F 46 °F  
Max Temperature 62 °F 58 °F 90 °F (1947)
Min Temperature 25 °F 35 °F 13 °F (1930)
Degree Days  
Heating Degree Days 21 19  
Month to date heating degree days 223 315  
Since 1 July heating degree days 446 528  
Cooling Degree Days 0 0  
Month to date cooling degree days 15 2  
Year to date cooling degree days 789 612  
Moisture  
Dew Point 30 °F    
Average Humidity 64    
Maximum Humidity 92    
Minimum Humidity 35    
Precipitation  
Precipitation 0.00 in 0.07 in 1.50 in (1908)
Month to date precipitation 0.58 1.76  
Year to date precipitation 20.69 31.39  
Snow  
Snow 0.00 in 0.00 in 0.00 in (2002)
Month to date snowfall 0.0 0.1  
Since 1 July snowfall 0.0 0.1  
Since 1 September snowfall 0.0 0.1  
Snow Depth 0.00 in    
Sea Level Pressure  
Sea Level Pressure 30.06 in    
Wind  
Wind Speed 7 mph (WSW)    
Max Wind Speed 15 mph    
Max Gust Speed 18 mph    
Visibility 10 miles    
Events      
T = Trace of Precipitation, MM = Missing Value Source: NWS Daily Summary

Daily Weather History Graph

Daily Weather History Graph

Search for Another Location

Airport or City:

Trip Planner

Search our weather history database for the weather conditions in past years. The results will help you decide how hot, cold, wet, or windy it might be!

Date:

Astronomy

Oct. 21, 2011 Rise Set
Actual Time 7:33 AM CDT 6:21 PM CDT
Civil Twilight 7:05 AM CDT 6:50 PM CDT
Nautical Twilight 6:31 AM CDT 7:23 PM CDT
Astronomical Twilight 5:58 AM CDT 7:56 PM CDT
Moon 1:15 AM CDT (10/21) 3:14 PM CDT (10/21)
Length of Visible Light 11h 45m
Length of Day
10h 47m
Waning Crescent, 33% of the Moon is Illuminated
Oct 21
Waning Crescent
Oct 26
New
Nov 2
First Quarter
Nov 10
Full
Nov 18
Last Quarter

Hourly Weather History & Observations

Time (CDT) Temp. Windchill Dew Point Humidity Pressure Visibility Wind Dir Wind Speed Gust Speed Precip Events Conditions
1:53 AM 28.9 °F 21.9 °F 25.0 °F 85% 30.05 in 10.0 mi WNW 6.9 mph - N/A   Clear
2:53 AM 28.0 °F 21.7 °F 25.0 °F 88% 30.06 in 10.0 mi West 5.8 mph - N/A   Clear
3:53 AM 30.0 °F 24.1 °F 26.1 °F 85% 30.06 in 10.0 mi West 5.8 mph - N/A   Clear
4:53 AM 26.6 °F 21.2 °F 24.8 °F 93% 30.06 in 10.0 mi West 4.6 mph - N/A   Clear
5:53 AM 26.1 °F 18.4 °F 23.0 °F 88% 30.09 in 10.0 mi West 6.9 mph - N/A   Clear
6:53 AM 26.1 °F 19.4 °F 23.0 °F 88% 30.10 in 10.0 mi West 5.8 mph - N/A   Clear
7:53 AM 27.0 °F 21.6 °F 24.1 °F 89% 30.11 in 10.0 mi West 4.6 mph - N/A   Clear
8:53 AM 35.1 °F - 30.0 °F 82% 30.12 in 10.0 mi Calm Calm - N/A   Clear
9:53 AM 44.6 °F 41.4 °F 33.8 °F 66% 30.10 in 10.0 mi SW 5.8 mph - N/A   Clear
10:53 AM 50.0 °F - 30.9 °F 48% 30.10 in 10.0 mi SSW 8.1 mph - N/A   Clear
11:53 AM 52.0 °F - 30.9 °F 45% 30.10 in 10.0 mi WSW 9.2 mph - N/A   Clear
12:53 PM 55.0 °F - 30.0 °F 38% 30.08 in 10.0 mi West 9.2 mph - N/A   Clear
1:53 PM 57.9 °F - 30.9 °F 36% 30.05 in 10.0 mi WSW 9.2 mph - N/A   Clear
2:53 PM 59.0 °F - 32.0 °F 36% 30.04 in 10.0 mi WSW 10.4 mph - N/A   Clear
3:53 PM 61.0 °F - 32.0 °F 34% 30.03 in 10.0 mi SSW 10.4 mph - N/A   Clear
4:53 PM 61.0 °F - 33.1 °F 35% 30.03 in 10.0 mi SW 10.4 mph - N/A   Clear
5:53 PM 55.9 °F - 33.1 °F 42% 30.03 in 10.0 mi SSW 5.8 mph - N/A   Clear
6:53 PM 51.1 °F - 33.1 °F 50% 30.04 in 10.0 mi SSW 4.6 mph - N/A   Clear
7:53 PM 45.0 °F 40.6 °F 34.0 °F 65% 30.04 in 4.0 mi South 8.1 mph - N/A   Haze
8:53 PM 44.1 °F 40.1 °F 34.0 °F 68% 30.04 in 8.0 mi South 6.9 mph - N/A   Clear
9:53 PM 44.1 °F 41.5 °F 34.0 °F 68% 30.03 in 10.0 mi SW 4.6 mph - N/A   Clear
10:53 PM 45.0 °F 41.2 °F 35.1 °F 68% 30.03 in 10.0 mi West 6.9 mph - N/A   Clear
11:53 PM 42.1 °F 37.1 °F 33.1 °F 70% 30.04 in 10.0 mi West 8.1 mph - N/A   Clear